Location: Bannatyne
(13.0833°N, 59.5333°W)
Time: 08:37:24
(UTC+00:00)

Vanguard 2 Rocket - Pass Details

Date: 25 January 2020
Orbit: 554 x 3326 km, 32.9° (Epoch: 08 April)

Event Time Altitude Azimuth Distance (km) Brightness Sun altitude
Rises 16:11:53 0° 293° (WNW) 4,990 10.6 57.9°
Reaches altitude 10° 16:14:42 10° 289° (WNW) 4,306 10.4 57.9°
Maximum altitude 16:27:12 59° 214° (SSW) 2,993 11.6 57.7°
Drops below altitude 10° 16:46:21 10° 139° (SE) 6,262 11.6 56.7°
Sets 16:51:32 0° 135° (SE) 7,305 11.7 56.4°
